Tegel Arpt/Berlin, Germany

4:37 PM CET on February 20, 2017 (GMT +0100)
Tegel

Weather History for EDDT - August, 2013

Change the Weather History Date:

Sunday, August 18, 2013

  Actual Average Record
Temperature  
Mean Temperature 71 °F -  
Max Temperature 80 °F 68 °F 87 °F (2003)
Min Temperature 62 °F 52 °F 39 °F (1996)
Cooling Degree Days 6    
Growing Degree Days 21 (Base 50)    
Moisture  
Dew Point 58 °F    
Average Humidity 66    
Maximum Humidity 88    
Minimum Humidity 36    
Precipitation  
Precipitation 0.01 in - - ()
Sea Level Pressure  
Sea Level Pressure 29.91 in    
Wind  
Wind Speed 6 mph ()    
Max Wind Speed 18 mph    
Max Gust Speed -    
Visibility 12.2 miles    
Events Rain    
Averages and records for this station are not official NWS values.
T = Trace of Precipitation, MM = Missing Value Source: Averaged Metar Reports

Daily Weather History Graph

Daily Weather History Graph

Search for Another Location

Airport or City:

Trip Planner

Search our weather history database for the weather conditions in past years. The results will help you decide how hot, cold, wet, or windy it might be!

Date:

Astronomy

Aug. 18, 2013 Rise Set
Actual Time 5:54 AM CEST 8:25 PM CEST
Civil Twilight 5:15 AM CEST 9:03 PM CEST
Nautical Twilight 4:27 AM CEST 9:52 PM CEST
Astronomical Twilight 3:27 AM CEST 10:50 PM CEST
Moon 6:27 PM CEST (8/18) 2:30 AM CEST (8/18)
Length of Visible Light 15h 47m
Length of Day
14h 31m
Waxing Gibbous, 90% of the Moon is Illuminated
Aug 18
Waxing Gibbous
Aug 21
Full
Aug 28
Last Quarter
Sep 5
New
Sep 12
First Quarter

Hourly Weather History & Observations

Time (CEST) Temp. Dew Point Humidity Pressure Visibility Wind Dir Wind Speed Gust Speed Precip Events Conditions
12:00 AM 67 °F 60 °F 73% 29.95 in 19 mi ENE 2.2 mph - -   Mostly Cloudy
12:20 AM 66.2 °F 60.8 °F 83% 29.95 in - East 2.3 mph - N/A   Clear
12:50 AM 68.0 °F 59.0 °F 73% 29.95 in - Variable 1.2 mph - N/A   Clear
1:00 AM 68 °F 60 °F 67% 29.94 in 19 mi ENE 2.2 mph - -   Partly Cloudy
1:20 AM 66.2 °F 59.0 °F 78% 29.92 in - East 1.2 mph - N/A   Clear
1:50 AM 66.2 °F 59.0 °F 78% 29.92 in - East 2.3 mph - N/A   Clear
2:00 AM 66 °F 59 °F 73% 29.93 in 16 mi East 2.2 mph - -   Mostly Cloudy
2:20 AM 66.2 °F 59.0 °F 78% 29.92 in - East 2.3 mph - N/A   Clear
2:50 AM 66.2 °F 59.0 °F 78% 29.92 in - East 2.3 mph - N/A   Clear
3:00 AM 66 °F 58 °F 70% 29.92 in 19 mi East 2.2 mph - -   Mostly Cloudy
3:20 AM 64.4 °F 57.2 °F 77% 29.92 in - SE 3.5 mph - N/A   Clear
3:50 AM 66.2 °F 57.2 °F 73% 29.89 in - ESE 2.3 mph - N/A   Clear
4:00 AM 65 °F 58 °F 71% 29.91 in 16 mi ESE 2.2 mph - -   Mostly Cloudy
4:20 AM 66.2 °F 57.2 °F 73% 29.89 in - SSE 4.6 mph - N/A   Clear
4:50 AM 66.2 °F 59.0 °F 78% 29.89 in - SSE 4.6 mph - N/A   Clear
5:00 AM 67 °F 59 °F 67% 29.89 in 47 mi SSE 4.5 mph - -   Mostly Cloudy
5:20 AM 66.2 °F 59.0 °F 78% 29.89 in - SSE 6.9 mph - N/A   Clear
5:50 AM 66.2 °F 59.0 °F 78% 29.89 in - SSE 4.6 mph - N/A   Clear
6:20 AM 68.0 °F 57.2 °F 68% 29.89 in - South 3.5 mph - N/A   Clear
6:50 AM 68.0 °F 57.2 °F 68% 29.89 in - South 5.8 mph - N/A   Clear
7:00 AM 67 °F 58 °F 64% 29.89 in 16 mi South 6.7 mph - -   Mostly Cloudy
7:20 AM 68.0 °F 57.2 °F 68% 29.89 in - SSW 5.8 mph - N/A   Clear
7:50 AM 66.2 °F 57.2 °F 73% 29.89 in - SSW 5.8 mph - N/A   Clear
8:00 AM 67 °F 58 °F 64% 29.89 in 19 mi SSW 4.5 mph - -   Mostly Cloudy
8:20 AM 68.0 °F 57.2 °F 68% 29.89 in - SSW 5.8 mph - N/A   Clear
8:50 AM 68.0 °F 57.2 °F 68% 29.89 in - SSW 6.9 mph - N/A   Clear
9:00 AM 68 °F 58 °F 62% 29.90 in 19 mi SSW 6.7 mph - -   Scattered Clouds
9:20 AM 68.0 °F 59.0 °F 73% 29.89 in - SSW 6.9 mph - N/A   Clear
9:50 AM 69.8 °F 59.0 °F 68% 29.89 in - SW 8.1 mph - N/A   Clear
10:00 AM 70 °F 59 °F 60% 29.91 in 19 mi SW 6.7 mph - -   Mostly Cloudy
10:20 AM 71.6 °F 59.0 °F 64% 29.89 in - SW 6.9 mph - N/A   Clear
10:50 AM 73.4 °F 60.8 °F 65% 29.89 in - SSW 8.1 mph - N/A   Clear
11:00 AM 73 °F 61 °F 56% 29.91 in 22 mi SSW 8.9 mph - -   Mostly Cloudy
11:20 AM 75.2 °F 59.0 °F 57% 29.89 in - SW 11.5 mph - N/A   Clear
11:50 AM 77.0 °F 59.0 °F 54% 29.89 in - SW 12.7 mph - N/A   Clear
12:00 PM 77 °F 60 °F 46% 29.90 in 25 mi SW 13.4 mph - -   Scattered Clouds
12:20 PM 77.0 °F 59.0 °F 54% 29.89 in - SW 12.7 mph - N/A   Clear
12:50 PM 78.8 °F 59.0 °F 51% 29.89 in - SW 12.7 mph - N/A   Clear
1:00 PM 78 °F 58 °F 41% 29.89 in 25 mi SW 13.4 mph - -   Scattered Clouds
1:20 PM 78.8 °F 57.2 °F 47% 29.89 in - SW 15.0 mph - N/A   Clear
1:50 PM 78.8 °F 57.2 °F 47% 29.89 in - SW 13.8 mph - N/A   Clear
2:00 PM 79 °F 58 °F 39% 29.89 in 25 mi SW 13.4 mph - -   Partly Cloudy
2:20 PM 78.8 °F 57.2 °F 47% 29.89 in 6.2 mi SW 17.3 mph - N/A Rain Light Rain
2:50 PM 78.8 °F 57.2 °F 47% 29.89 in 6.2 mi SW 12.7 mph - N/A Rain Light Rain
3:00 PM 78 °F 57 °F 38% 29.89 in 22 mi SW 13.4 mph - - Rain Light Rain
3:20 PM 78.8 °F 55.4 °F 44% 29.89 in 6.2 mi SW 16.1 mph - N/A   Mostly Cloudy
3:50 PM 77.0 °F 53.6 °F 44% 29.89 in 6.2 mi WSW 17.3 mph - N/A   Mostly Cloudy
4:00 PM 77 °F 55 °F 36% 29.91 in 22 mi WSW 17.9 mph - - Rain Light Rain
4:20 PM 75.2 °F 53.6 °F 47% 29.92 in 6.2 mi WSW 18.4 mph - N/A Rain Light Rain
4:50 PM 71.6 °F 57.2 °F 60% 29.92 in 6.2 mi WSW 9.2 mph - N/A Rain Light Rain
5:00 PM 72 °F 58 °F 51% 29.92 in 19 mi WSW 8.9 mph - - Rain Light Rain
5:20 PM 69.8 °F 59.0 °F 68% 29.92 in 6.2 mi WSW 11.5 mph - N/A Rain Light Rain
5:50 PM 68.0 °F 59.0 °F 73% 29.92 in 6.2 mi SW 12.7 mph - N/A Rain Light Rain
6:20 PM 66.2 °F 59.0 °F 78% 29.95 in 6.2 mi SW 13.8 mph - N/A Rain Light Rain
6:50 PM 66.2 °F 59.0 °F 78% 29.92 in 6.2 mi SW 12.7 mph - N/A Rain Light Rain
7:00 PM 66 °F 59 °F 71% 29.94 in 19 mi SW 11.2 mph - - Rain Light Rain
7:20 PM 66.2 °F 59.0 °F 78% 29.92 in 6.2 mi WSW 10.4 mph - N/A Rain Light Rain
7:50 PM 66.2 °F 57.2 °F 73% 29.92 in 6.2 mi SSW 10.4 mph - N/A Rain Light Rain
8:00 PM 66 °F 58 °F 69% 29.93 in 28 mi SSW 8.9 mph - - Rain Light Rain
8:20 PM 66.2 °F 57.2 °F 73% 29.92 in - SW 10.4 mph - N/A   Clear
8:50 PM 66.2 °F 57.2 °F 73% 29.92 in - SW 11.5 mph - N/A   Clear
9:00 PM 66 °F 58 °F 67% 29.94 in 25 mi SW 11.2 mph - - Rain Light Rain
9:20 PM 64.4 °F 57.2 °F 77% 29.95 in - SSW 8.1 mph - N/A   Clear
9:50 PM 64.4 °F 57.2 °F 77% 29.95 in - SSW 5.8 mph - N/A   Clear
10:00 PM 64 °F 58 °F 75% 29.94 in 19 mi SSW 6.7 mph - -   Scattered Clouds
10:20 PM 64.4 °F 57.2 °F 77% 29.92 in - SSW 5.8 mph - N/A   Clear
10:50 PM 62.6 °F 59.0 °F 88% 29.95 in - SSW 5.8 mph - N/A   Clear
11:00 PM 63 °F 58 °F 80% 29.94 in 25 mi SSW 6.7 mph - -   Partly Cloudy
11:20 PM 62.6 °F 57.2 °F 82% 29.95 in - SW 5.8 mph - N/A   Clear
11:50 PM 62.6 °F 59.0 °F 88% 29.95 in - South 4.6 mph - N/A   Clear